Location: Linz
(48.3300°N, 14.3000°E)
Time: 12:57:12
(UTC+02:00)

Vanguard 2 - All Passes

Search period start: 20 June 2018 00:00
Search period end: 30 June 2018 00:00
Orbit: 553 x 2939 km, 32.9° (Epoch: 19 June)

Date Brightness Start Highest point End Pass type
(mag) Time Alt. Az. Time Alt. Az. Time Alt. Az.
21 Jun - 06:01:41 10° SSW 06:03:05 11° S 06:04:24 10° SSE daylight
22 Jun - 04:12:01 10° S 04:13:20 11° S 04:14:34 10° SSE visible
22 Jun - 06:19:09 10° SSW 06:20:50 12° S 06:22:24 10° SSE daylight
23 Jun - 04:28:18 10° SSW 04:31:09 13° S 04:33:35 10° SSE daylight
23 Jun - 06:37:04 10° SSW 06:38:33 11° S 06:39:57 10° S daylight
24 Jun - 02:39:02 10° S 02:41:03 11° SSE 02:42:53 10° SSE visible
24 Jun - 04:45:26 10° SW 04:48:57 15° S 04:51:51 10° SE daylight
24 Jun - 06:55:53 10° SSW 06:56:15 10° SSW 06:56:36 10° SSW daylight
25 Jun - 02:54:42 10° SSW 02:58:55 15° S 03:02:19 10° SE visible
25 Jun - 05:02:56 10° SW 05:06:44 16° S 05:09:47 10° SSE daylight
26 Jun - 01:07:27 10° SSE 01:08:22 10° SSE 01:09:14 10° SSE visible
26 Jun - 03:11:26 10° SSW 03:16:45 18° S 03:20:49 10° SE visible
26 Jun - 05:20:42 10° SW 05:24:28 16° S 05:27:31 10° SSE daylight
27 Jun - 01:21:11 10° S 01:26:14 14° SSE 01:30:21 10° SE visible
27 Jun - 03:28:38 10° SW 03:34:35 20° S 03:38:59 10° SE visible
27 Jun - 05:38:41 10° SW 05:42:09 15° SSW 05:45:01 10° SSE daylight
28 Jun - 01:37:17 10° SSW 01:44:06 18° SSE 01:49:17 10° SE visible
28 Jun - 03:46:07 10° SW 03:52:24 22° S 03:56:57 10° SE visible
28 Jun - 05:56:59 10° SW 05:59:48 13° SSW 06:02:12 10° S daylight
28 Jun - 23:48:38 10° S 23:53:05 12° SSE 23:56:58 10° SE visible
29 Jun - 01:54:02 10° SW 02:01:59 22° S 02:07:41 10° ESE visible
29 Jun - 04:03:49 10° SW 04:10:10 23° S 04:14:44 10° SE visible
29 Jun - 06:15:55 10° SW 06:17:22 11° SSW 06:18:41 10° SSW daylight
